TimeHST,TemperatureF,Dew PointF,Humidity,Sea Level PressureIn,VisibilityMPH,Wind Direction,Wind SpeedMPH,Gust SpeedMPH,PrecipitationIn,Events,Conditions,WindDirDegrees,DateUTC
12:54 AM,69.1,62.1,78,30.09,10.0,NNE,18.4,29.9,N/A,,Clear,30,2013-02-01 10:54:00
1:54 AM,69.1,62.1,78,30.08,10.0,NNE,17.3,28.8,N/A,,Partly Cloudy,30,2013-02-01 11:54:00
2:54 AM,69.1,61.0,75,30.09,10.0,NE,12.7,19.6,N/A,,Scattered Clouds,40,2013-02-01 12:54:00
3:42 AM,69.8,60.8,73,30.08,10.0,NE,8.1,-,N/A,,Mostly Cloudy,50,2013-02-01 13:42:00
3:54 AM,69.1,61.0,75,30.08,10.0,NE,11.5,18.4,N/A,,Mostly Cloudy,40,2013-02-01 13:54:00
4:54 AM,69.1,61.0,75,30.09,10.0,NNE,11.5,21.9,N/A,,Mostly Cloudy,30,2013-02-01 14:54:00
5:54 AM,68.0,59.0,73,30.10,10.0,NNE,10.4,21.9,N/A,,Mostly Cloudy,30,2013-02-01 15:54:00
6:22 AM,68.0,57.2,68,30.09,10.0,NNE,11.5,23.0,N/A,,Scattered Clouds,30,2013-02-01 16:22:00
6:54 AM,68.0,57.0,68,30.10,10.0,NE,15.0,23.0,N/A,,Partly Cloudy,40,2013-02-01 16:54:00
7:54 AM,69.1,57.0,65,30.11,10.0,NNE,18.4,28.8,N/A,,Partly Cloudy,30,2013-02-01 17:54:00
8:54 AM,71.1,55.9,59,30.12,10.0,NE,20.7,31.1,N/A,,Clear,40,2013-02-01 18:54:00
9:54 AM,72.0,55.9,57,30.14,10.0,NE,19.6,33.4,N/A,,Clear,40,2013-02-01 19:54:00
10:54 AM,73.9,55.9,53,30.14,10.0,NNE,18.4,33.4,N/A,,Partly Cloudy,30,2013-02-01 20:54:00
11:54 AM,73.9,57.0,55,30.12,10.0,NNE,21.9,32.2,N/A,,Clear,30,2013-02-01 21:54:00
12:54 PM,75.0,57.0,53,30.11,10.0,NE,19.6,32.2,N/A,,Clear,40,2013-02-01 22:54:00
1:54 PM,75.9,57.0,52,30.09,10.0,NE,18.4,25.3,N/A,,Clear,50,2013-02-01 23:54:00
2:54 PM,75.0,57.9,55,30.07,10.0,NE,17.3,28.8,N/A,,Partly Cloudy,40,2013-02-02 00:54:00
3:54 PM,73.9,62.1,66,30.07,10.0,NNE,15.0,25.3,N/A,,Clear,30,2013-02-02 01:54:00
4:54 PM,73.9,61.0,64,30.08,10.0,NE,12.7,24.2,N/A,,Clear,40,2013-02-02 02:54:00
5:54 PM,71.1,61.0,70,30.10,10.0,NE,16.1,27.6,N/A,,Clear,50,2013-02-02 03:54:00
6:54 PM,69.1,60.1,73,30.11,10.0,Variable,4.6,16.1,N/A,,Partly Cloudy,0,2013-02-02 04:54:00
7:54 PM,70.0,59.0,68,30.13,10.0,ENE,13.8,21.9,N/A,,Clear,60,2013-02-02 05:54:00
8:54 PM,70.0,60.1,71,30.15,10.0,ENE,9.2,23.0,N/A,,Partly Cloudy,60,2013-02-02 06:54:00
9:54 PM,70.0,61.0,73,30.14,10.0,NE,11.5,23.0,N/A,,Partly Cloudy,50,2013-02-02 07:54:00
10:54 PM,70.0,61.0,73,30.13,10.0,NE,10.4,19.6,N/A,,Clear,40,2013-02-02 08:54:00
11:54 PM,70.0,59.0,68,30.11,10.0,NE,11.5,-,N/A,,Clear,40,2013-02-02 09:54:00